Weather History for VDSR - September, 2012

Change the Weather History Date:

Thursday, September 13, 2012

  Actual Average Record
Temperature  
Mean Temperature 82 °F -  
Max Temperature 87 °F - - ()
Min Temperature 77 °F - - ()
Cooling Degree Days 17    
Growing Degree Days 32 (Base 50)    
Moisture  
Dew Point 76 °F    
Average Humidity 85    
Maximum Humidity 94    
Minimum Humidity 70    
Precipitation  
Precipitation 0.00 in - - ()
Sea Level Pressure  
Sea Level Pressure 29.74 in    
Wind  
Wind Speed 4 mph ()    
Max Wind Speed 9 mph    
Max Gust Speed -    
Visibility 5.6 miles    
Events Rain , Thunderstorm    
T = Trace of Precipitation, MM = Missing Value Source: Averaged Metar Reports

Daily Weather History Graph

Daily Weather History Graph

Search for Another Location

Airport or City:

Trip Planner

Search our weather history database for the weather conditions in past years. The results will help you decide how hot, cold, wet, or windy it might be!

Date:

Astronomy

Sep. 13, 2012 Rise Set
Actual Time 5:53 AM ICT 6:07 PM ICT
Civil Twilight 5:32 AM ICT 6:28 PM ICT
Nautical Twilight 5:07 AM ICT 6:53 PM ICT
Astronomical Twilight 4:42 AM ICT 7:18 PM ICT
Moon 3:03 AM ICT (9/13) 3:52 PM ICT (9/13)
Length of Visible Light 12h 56m
Length of Day
12h 13m
Waning Crescent, 10% of the Moon is Illuminated
Sep 13
Waning Crescent
Sep 16
New
Sep 23
First Quarter
Sep 30
Full
Oct 8
Last Quarter

Hourly Weather History & Observations

Time (ICT) Temp. Heat Index Dew Point Humidity Pressure Visibility Wind Dir Wind Speed Gust Speed Precip Events Conditions
7:30 AM 82.4 °F 89.5 °F 75.2 °F 79% 29.77 in 6.2 mi WSW 3.5 mph - N/A   Mostly Cloudy
8:00 AM 82.4 °F 89.5 °F 75.2 °F 79% 29.80 in 6.2 mi WSW 6.9 mph - N/A   Mostly Cloudy
8:30 AM 82.4 °F 89.5 °F 75.2 °F 79% 29.80 in 6.2 mi SSW 4.6 mph - N/A   Mostly Cloudy
9:00 AM 84.2 °F 92.3 °F 75.2 °F 74% 29.80 in 6.2 mi South 4.6 mph - N/A   Mostly Cloudy
9:30 AM 84.2 °F 90.9 °F 73.4 °F 70% 29.80 in 6.2 mi Calm Calm - N/A   Mostly Cloudy
10:00 AM 86.0 °F 95.1 °F 75.2 °F 70% 29.80 in 6.2 mi Calm Calm - N/A   Mostly Cloudy
10:30 AM 86.0 °F 95.1 °F 75.2 °F 70% 29.80 in 6.2 mi WNW 2.3 mph - N/A   Mostly Cloudy
11:00 AM 87.8 °F 99.7 °F 77.0 °F 70% 29.80 in 6.2 mi West 9.2 mph - N/A   Mostly Cloudy
11:30 AM 86.0 °F 95.1 °F 75.2 °F 70% 29.77 in 6.2 mi SSW 6.9 mph - N/A   Mostly Cloudy
12:00 PM 86.0 °F 95.1 °F 75.2 °F 70% 29.74 in 6.2 mi WSW 9.2 mph - N/A   Mostly Cloudy
12:30 PM 77.0 °F - 73.4 °F 89% 29.74 in 2.5 mi SSW 8.1 mph - N/A Rain Rain
1:00 PM 77.0 °F - 75.2 °F 94% 29.71 in 5.0 mi South 6.9 mph - N/A Rain , Thunderstorm Light Thunderstorms and Rain
1:30 PM 78.8 °F - 75.2 °F 89% 29.71 in 5.0 mi West 6.9 mph - N/A Rain , Thunderstorm Light Thunderstorms and Rain
2:00 PM 78.8 °F - 75.2 °F 89% 29.68 in 5.0 mi West 6.9 mph - N/A Rain , Thunderstorm Light Thunderstorms and Rain
2:30 PM 78.8 °F - 75.2 °F 89% 29.68 in 5.6 mi NW 6.9 mph - N/A Rain Light Rain
3:00 PM 78.8 °F - 75.2 °F 89% 29.65 in 5.6 mi North 3.5 mph - N/A Rain Light Rain
3:30 PM 80.6 °F 86.2 °F 75.2 °F 84% 29.65 in 5.6 mi NW 8.1 mph - N/A Rain Light Rain
4:00 PM 78.8 °F - 75.2 °F 89% 29.65 in 5.6 mi NW 4.6 mph - N/A Rain Light Rain
4:30 PM 78.8 °F - 75.2 °F 89% 29.68 in - WNW 4.6 mph - N/A Rain Light Rain
5:00 PM 78.8 °F - 75.2 °F 89% 29.68 in 5.6 mi Calm Calm - N/A Rain Light Rain
5:30 PM 78.8 °F - 77.0 °F 94% 29.68 in 5.6 mi Calm Calm - N/A Rain Light Rain
6:00 PM 78.8 °F - 77.0 °F 94% 29.71 in 5.6 mi SE 2.3 mph - N/A Rain Light Rain
6:30 PM 78.8 °F - 77.0 °F 94% 29.71 in 5.6 mi SE 2.3 mph - N/A   Mostly Cloudy
7:00 PM 78.8 °F - 77.0 °F 94% 29.74 in 5.6 mi Calm Calm - N/A   Mostly Cloudy
7:30 PM 80.6 °F 87.1 °F 77.0 °F 89% 29.74 in 5.6 mi Calm Calm - N/A   Mostly Cloudy
8:00 PM 80.6 °F 87.1 °F 77.0 °F 89% 29.74 in 5.6 mi Calm Calm - N/A   Mostly Cloudy
8:30 PM 80.6 °F 87.1 °F 77.0 °F 89% 29.77 in 5.6 mi Calm Calm - N/A   Scattered Clouds
9:00 PM 80.6 °F 87.1 °F 77.0 °F 89% 29.77 in 5.6 mi SSE 2.3 mph - N/A   Scattered Clouds
9:30 PM 80.6 °F 87.1 °F 77.0 °F 89% 29.77 in 5.6 mi Calm Calm - N/A   Scattered Clouds
10:00 PM 80.6 °F 87.1 °F 77.0 °F 89% 29.77 in 5.6 mi Calm Calm - N/A   Scattered Clouds
10:30 PM 80.6 °F 87.1 °F 77.0 °F 89% 29.77 in 5.6 mi Calm Calm - N/A   Scattered Clouds